Location: ????????
(41.2031°N, 22.5756°E)
Time: 06:13:54
(UTC+00:00)

CZ-4B R/B - Pass Details

Date: 01 December 2020
Orbit: 809 x 881 km, 99.1° (Epoch: 20 January)

Event Time Altitude Azimuth Distance (km) Brightness Sun altitude
Rises 15:59:37 0° 167° (SSE) 3,341 6.4 -10.8°
Reaches altitude 10° 16:01:58 10° 169° (S) 2,405 5.7 -11.2°
Maximum altitude 16:07:17 79° 256° (WSW) 831 3.3 -12.2°
Drops below altitude 10° 16:12:36 10° 344° (NNW) 2,403 5.6 -13.1°
Sets 16:14:56 0° 345° (NNW) 3,338 6.3 -13.5°
